Location: Le Castellard
(44.1862°N, 6.1301°E)
Time: 00:19:14
(UTC+00:00)

Cosmos 1328 - Pass Details

Date: 18 January 2020
Orbit: 535 x 549 km, 82.5° (Epoch: 28 February)

Event Time Altitude Azimuth Distance (km) Brightness Sun altitude
Rises 06:03:18 0° 349° (N) 2,723 7.1 -11.2°
Reaches altitude 10° 06:05:29 10° 347° (NNW) 1,823 6.2 -10.8°
Maximum altitude 06:09:28 70° 264° (W) 581 3.7 -10.1°
Drops below altitude 10° 06:13:25 10° 181° (S) 1,799 6.7 -9.5°
Sets 06:15:33 0° 179° (S) 2,683 7.6 -9.1°
